logo
Games tagged Alternate History
# Game Release date
Price
Score rank
(Userscore / Metascore)
Owners
Players
Playtime (Median)
Developer(s)
Publisher(s)
1 BioShock Aug 21, 2007 $19.99N/A (N/A/96%)2,000,000 .. 5,000,0000.43%02:32 (00:50)2K Boston, 2K Australia2K
2 BioShock Infinite Mar 25, 2013 $29.99N/A (N/A/94%)2,000,000 .. 5,000,0000.7%14:32 (08:57)Irrational Games, Virtual Programming (Linux)2K
3 Return to Castle Wolfenstein Nov 20, 2001 $4.99N/A (N/A/88%)500,000 .. 1,000,0006.9%00:11 (00:05)Gray Matter StudiosBethesda-Softworks
4 Unity of Command II Nov 12, 2019 $29.99N/A (N/A/88%)20,000 .. 50,0000%00:00 (00:00)2x2 Games, Croteam2x2 Games
5 Europa Universalis IV Aug 13, 2013 $39.99N/A (N/A/87%)2,000,000 .. 5,000,00012.4%08:20 (10:38)Paradox Development StudioParadox Interactive
6 SUNLESS SKIES Jan 31, 2019 $24.99N/A (N/A/87%)200,000 .. 500,0000%00:00 (00:00)Failbetter GamesFailbetter Games
7 Assassin's Creed 2 Deluxe Edition Mar 9, 2010 $5.99N/A (N/A/86%)1,000,000 .. 2,000,0001.19%01:21 (00:27)Ubisoft MontrealUbisoft
8 Wolfenstein II: The New Colossus Oct 26, 2017 $39.99N/A (N/A/86%)1,000,000 .. 2,000,0004.84%10:49 (09:35)Machine GamesBethesda Softworks
9 Silent Storm Gold Edition Sep 9, 2004 $9.99N/A (N/A/83%)200,000 .. 500,0000%00:00 (00:00)NivalTHQ Nordic
10 Europa Universalis III Complete Jan 23, 2007 $14.99N/A (N/A/83%)200,000 .. 500,0000%00:00 (00:00)Paradox Development StudioParadox Interactive
11 Hypnospace Outlaw Mar 12, 2019 $19.99N/A (N/A/83%)50,000 .. 100,0000%00:00 (00:00)Tendershoot, Michael Lasch, ThatWhichIs MediaNo More Robots
12 Hearts of Iron IV Jun 6, 2016 $39.99N/A (N/A/83%)2,000,000 .. 5,000,00020.25%10:27 (09:24)Paradox Development StudioParadox Interactive
13 Command & Conquer: Red Alert 3 Oct 28, 2008 $19.99N/A (N/A/82%)500,000 .. 1,000,0000%00:00 (00:00)EA Los AngelesElectronic Arts
14 Wolfenstein: The New Order May 19, 2014 $19.99N/A (N/A/81%)2,000,000 .. 5,000,0000.99%05:53 (01:57)Machine GamesBethesda-Soft
15 Wargame: European Escalation Feb 22, 2012 $9.99N/A (N/A/81%)200,000 .. 500,0000%00:00 (00:00)Eugen SystemsEugen Systems
16 Jamestown Jun 8, 2011 $4.99N/A (N/A/81%)500,000 .. 1,000,0000%00:00 (00:00)Final Form GamesFinal Form Games
17 Irony Curtain: From Matryoshka with Love May 16, 2019 $19.99N/A (N/A/81%)0 .. 20,0000%00:00 (00:00)Artifex MundiArtifex Mundi
18 Suzerain Dec 4, 2020 $14.99N/A (N/A/81%)100,000 .. 200,0000%00:00 (00:00)Torpor GamesFellow Traveller
19 The Age of Decadence Oct 14, 2015 $12.99N/A (N/A/81%)100,000 .. 200,0000%00:00 (00:00)Iron Tower StudioIron Tower Studio
20 Wargame: Airland Battle May 29, 2013 $19.99N/A (N/A/80%)200,000 .. 500,0000%00:00 (00:00)Eugen SystemsEugen Systems
21 Assassin’s Creed III Nov 20, 2012 N/AN/A (N/A/80%)1,000,000 .. 2,000,0000%00:00 (00:00)Ubisoft MontrealUbisoft
22 BioShock Remastered Sep 15, 2016 $19.99N/A (N/A/80%)2,000,000 .. 5,000,0000.43%01:30 (00:30)2K Boston, 2K Australia, Blind Squirrel, Feral Interactive (Mac)2K, Feral Interactive (Mac)
23 Call of Juarez: Gunslinger May 22, 2013 $14.99N/A (N/A/79%)1,000,000 .. 2,000,0000%00:00 (00:00)TechlandTechland Publishing
24 Wargame: Red Dragon Apr 17, 2014 $29.99N/A (N/A/78%)1,000,000 .. 2,000,0001.82%00:35 (00:11)Eugen SystemsEugen Systems
25 Hearts of Iron III Aug 7, 2009 $9.99N/A (N/A/77%)500,000 .. 1,000,0000%00:00 (00:00)Paradox Development StudioParadox Interactive
26 Herald: An Interactive Period Drama - Book I & II Feb 22, 2017 $9.99N/A (N/A/77%)0 .. 20,000NAN%00:00 (00:00)WispfireWispfire
27 Wolfenstein: The Old Blood May 4, 2015 $19.99N/A (N/A/76%)500,000 .. 1,000,0001.79%00:06 (00:02)MachineGamesBethesda Softworks
28 Singularity Jun 30, 2010 $29.99N/A (N/A/76%)200,000 .. 500,0000%00:00 (00:00)Raven SoftwareActivision
29 Iron Harvest Aug 31, 2020 $49.99N/A (N/A/75%)200,000 .. 500,0000%00:00 (00:00)KING ArtDeep Silver
30 Victoria II Aug 30, 2010 $19.99N/A (N/A/75%)500,000 .. 1,000,0000%00:00 (00:00)Paradox Development StudioParadox Interactive
31 Kenshi Dec 6, 2018 $29.99N/A (N/A/75%)1,000,000 .. 2,000,0008.16%02:30 (03:18)Lo-Fi GamesLo-Fi Games
32 Battlezone 98 Redux Apr 18, 2016 $19.99N/A (N/A/75%)50,000 .. 100,0000%00:00 (00:00)Big Boat InteractiveRebellion
33 Battlestations Pacific May 12, 2009 $8.99N/A (N/A/74%)200,000 .. 500,0000%00:00 (00:00)Eidos Studio HungarySquare Enix
34 Phantom Doctrine Aug 14, 2018 $39.99N/A (N/A/73%)200,000 .. 500,0000%00:00 (00:00)CreativeForge GamesGood Shepherd Entertainment
35 Mars Horizon Nov 17, 2020 $19.99N/A (N/A/73%)50,000 .. 100,0000%00:00 (00:00)Auroch DigitalThe Irregular Corporation
36 Blues and Bullets Jul 23, 2015 $4.99N/A (N/A/73%)50,000 .. 100,0000%00:00 (00:00)A Crowd of MonstersA Crowd of Monsters
37 Lamplight City Sep 13, 2018 $10.04N/A (N/A/72%)20,000 .. 50,0000%00:00 (00:00)Grundislav GamesApplication Systems Heidelberg
38 All Walls Must Fall - A Tech-Noir Tactics Game Feb 23, 2018 $9.99N/A (N/A/72%)0 .. 20,000NAN%00:00 (00:00)inbetweengamesinbetweengames
39 Not Tonight Aug 17, 2018 $19.99N/A (N/A/71%)100,000 .. 200,0000%00:00 (00:00)PanicBarnNo More Robots
40 TimeShift Oct 30, 2007 $19.99N/A (N/A/71%)100,000 .. 200,0000%00:00 (00:00)Saber InteractiveActivision
41 Kosmokrats Nov 5, 2020 $14.99N/A (N/A/70%)0 .. 20,000NAN%00:00 (00:00)Pixel DelusionModern Wolf
42 Bartlow's Dread Machine Sep 29, 2020 $14.99N/A (N/A/69%)0 .. 20,000NAN%00:00 (00:00)Beep Games, Inc., TribetoyBeep Games, Inc.
43 Iron Storm Oct 25, 2002 $2.99N/A (N/A/69%)20,000 .. 50,0000%00:00 (00:00)MicroidsMicroids
44 Gladiator: Sword of Vengeance Nov 5, 2003 $7.99N/A (N/A/69%)0 .. 20,0000%00:00 (00:00)Throwback EntertainmentThrowback Entertainment
45 Moons of Madness Oct 22, 2019 $24.99N/A (N/A/69%)100,000 .. 200,0000%00:00 (00:00)Rock Pocket GamesFuncom
46 Wolfenstein: Youngblood Jul 25, 2019 $29.99N/A (N/A/69%)500,000 .. 1,000,0000%00:00 (00:00)Machine Games, Arkane StudiosBethesda Softworks
47 Nikopol: Secrets of the Immortals Sep 7, 2008 $4.99N/A (N/A/68%)200,000 .. 500,0000%00:00 (00:00)Meridian4
48 Company of Crime Aug 7, 2020 $29.99N/A (N/A/66%)0 .. 20,000NAN%00:00 (00:00)Resistance Games1C Entertainment
49 The Church in the Darkness Aug 2, 2019 $19.99N/A (N/A/65%)0 .. 20,000NAN%00:00 (00:00)Paranoid ProductionsFellow Traveller
50 Command & Conquer: Red Alert 3 - Uprising Mar 12, 2009 $19.99N/A (N/A/64%)500,000 .. 1,000,0000%00:00 (00:00)EA Los AngelesElectronic Arts
51 Vertiginous Golf Mar 7, 2014 $9.99N/A (N/A/63%)200,000 .. 500,0000%00:00 (00:00)Kinelco & Lone Elk CreativeFellow Traveller
52 NecroVision May 20, 2009 $4.99N/A (N/A/63%)100,000 .. 200,0000%00:00 (00:00)The Farm 511C Entertainment
53 Cook, Serve, Delicious! 2!! Sep 13, 2017 $12.99N/A (N/A/62%)200,000 .. 500,0000%00:00 (00:00)Vertigo Gaming Inc.Vertigo Gaming Inc.
54 The Descendant Mar 24, 2016 $1.49N/A (N/A/59%)500,000 .. 1,000,0000%00:00 (00:00)Gaming Corps ABMicroids Indie, Microids
55 EMPYRE: Lords of the Sea Gates Oct 4, 2017 $29.99N/A (N/A/56%)0 .. 20,000NAN%00:00 (00:00)Coin Operated GamesCoin Operated Games, Work Shift Play Inc.
56 Bohemian Killing Jul 21, 2016 $12.99N/A (N/A/55%)20,000 .. 50,0000%00:00 (00:00)The MoonwallsLibredia Entertainment
57 Wolfenstein: Cyberpilot Jul 25, 2019 $19.99N/A (N/A/54%)0 .. 20,000NAN%00:00 (00:00)Arkane Studios, Machine GamesBethesda Softworks
58 Dino D-Day Apr 8, 2011 $9.99N/A (N/A/53%)1,000,000 .. 2,000,0000%00:00 (00:00)800 North and Digital Ranch800 North and Digital Ranch
59 Darkest of Days Sep 2009 $19.99N/A (N/A/51%)20,000 .. 50,0000%00:00 (00:00)8monkey LabsPhantom EFX
60 Call of War: World War 2 Oct 21, 2017 FreeN/A (N/A)200,000 .. 500,0000%00:00 (00:00)Bytro Labs GmbHBytro Labs GmbH
61 Generals & Rulers Jun 1, 2019 $11.99N/A (N/A)0 .. 20,0000%00:00 (00:00)Hamsters GamingHamsters Gaming
62 星尘战区 Stardust Theater Oct 6, 2020 $0.99N/A (N/A)0 .. 20,000NAN%00:00 (00:00)TlpProjectTlpProject
63 Electioneering Oct 20, 2020 $14.99N/A (N/A)0 .. 20,000NAN%00:00 (00:00)Cosmo's TuxedoCosmo's Tuxedo
64 Vampires' Melody Oct 2, 2020 $3.99N/A (N/A)0 .. 20,0000%00:00 (00:00)AsicxArtSakuraGame
65 Chesnakisnak Oct 19, 2020 FreeN/A (N/A)0 .. 20,000NAN%00:00 (00:00)SchirwindtSchirwindt
66 Evil Democracy: 1932 Oct 3, 2020 $8.27N/A (N/A)0 .. 20,000NAN%00:00 (00:00)Hamsters GamingHamsters Gaming
67 Rogue Aces Deluxe Oct 16, 2020 FreeN/A (N/A)0 .. 20,000NAN%00:00 (00:00)Infinite State Games, Projector StudiosInfinite State Games
68 剑与羁绊 Oct 16, 2020 $8.99N/A (N/A)0 .. 20,000NAN%00:00 (00:00)y2工作室y2工作室
69 Freedom Fighters Sep 26, 2003 $14.99N/A (N/A)50,000 .. 100,000NAN%00:00 (00:00)IO Interactive A/SIO Interactive A/S
70 Religion inc God Simulator Oct 16, 2020 $4.99N/A (N/A)20,000 .. 50,000NAN%00:00 (00:00)GameFirstGameFirst
71 A Monster's Expedition Sep 10, 2020 $19.99N/A (N/A)0 .. 20,000NAN%00:00 (00:00)Draknek & FriendsDraknek
72 The Heroic Legend of Eagarlnia Oct 14, 2020 $12.99N/A (N/A)50,000 .. 100,0000%00:00 (00:00)HongShou StudioPixmain
73 Earth: 9000 Sep 10, 2020 $4.99N/A (N/A)0 .. 20,000NAN%00:00 (00:00)Secret Forest GamesSecret Forest Games
74 BORIS THE ROCKET Oct 14, 2020 $9.99N/A (N/A)0 .. 20,000NAN%00:00 (00:00)toR StudiotoR Studio
75 Ratten Reich - Dance of Kings Oct 25, 2020 FreeN/A (N/A)0 .. 20,000NAN%00:00 (00:00)MetalAdlerStudioMetalAdlerStudio
76 Bloody Rally Show: Prologue Oct 13, 2020 FreeN/A (N/A)0 .. 20,000NAN%00:00 (00:00)Kodo LinijaKodo Linija
77 Building 847 Oct 23, 2020 $4.99N/A (N/A)0 .. 20,000NAN%00:00 (00:00)Deliriously HappyDeliriously Happy
78 War of the Human Tanks - ALTeR Feb 13, 2015 $12.99N/A (N/A)20,000 .. 50,0000%00:00 (00:00)Yakiniku BanzaiFruitbat Factory
79 Making History: The Great War Jan 29, 2015 $29.99N/A (N/A)20,000 .. 50,0000%00:00 (00:00)Muzzy Lane Software, Factus GamesFactus Games
80 Supreme Ruler Ultimate Oct 17, 2014 $7.99N/A (N/A)50,000 .. 100,0000%00:00 (00:00)BattleGoat StudiosBattleGoat Studios
81 Super 3-D Noah's Ark Jan 1, 1995 $4.99N/A (N/A)50,000 .. 100,0000%00:00 (00:00)Wisdom Tree, Inc.Piko Interactive LLC, Classics Digital
82 War of the Human Tanks Sep 14, 2012 $9.99N/A (N/A)100,000 .. 200,0000%00:00 (00:00)Yakiniku BanzaiFruitbat Factory
83 The Silent Age May 29, 2015 $9.99N/A (N/A)200,000 .. 500,0000%00:00 (00:00)House On FireMeridian4
84 ✌ Johnny Rocket Nov 12, 2018 $1.99N/A (N/A)0 .. 20,000NAN%00:00 (00:00)KG Game Studuo, hedehede
85 Tombeaux Nov 5, 2018 $4.99N/A (N/A)0 .. 20,000NAN%00:00 (00:00)Dave BeckDave Beck
86 Scythe: Digital Edition Sep 5, 2018 $19.99N/A (N/A)200,000 .. 500,0000%00:00 (00:00)The Knights of UnityAsmodee Digital
87 Automobiels and the Eisenhower Hiway System the Game Nov 1, 2018 FreeN/A (N/A)0 .. 20,000NAN%00:00 (00:00)Jeffrey MarshJeffrey marsh
88 Age of Gladiators II: Rome Aug 21, 2018 $19.99N/A (N/A)20,000 .. 50,000NAN%00:00 (00:00)Creative Storm EntertainmentCreative Storm Entertainment
89 Headliner: NoviNews Oct 23, 2018 $13.99N/A (N/A)50,000 .. 100,000NAN%00:00 (00:00)Unbound CreationsUnbound Creations
90 Death Trader: Cold War Oct 19, 2018 $14.99N/A (N/A)0 .. 20,000NAN%00:00 (00:00)DreambakersDreambakers
91 Airships: Conquer the Skies Aug 16, 2018 $14.99N/A (N/A)200,000 .. 500,0000%00:00 (00:00)David StarkDavid Stark
92 Crimson Gray: Dusk and Dawn Oct 5, 2018 $4.99N/A (N/A)0 .. 20,000NAN%00:00 (00:00)Sierra LeeSierra Lee
93 Pendula Swing Episode 1 - Tired and Retired Aug 15, 2018 N/AN/A (N/A)0 .. 20,000NAN%00:00 (00:00)Valiant Game Studio ABValiant Game Studio AB
94 The Great Fantasy Struggle Sep 26, 2018 $4.99N/A (N/A)0 .. 20,000NAN%00:00 (00:00)Alina DigitalAlina Digital
95 Above the Fold Dec 3, 2018 $13.99N/A (N/A)0 .. 20,000NAN%00:00 (00:00)Rasmus RasmussenRasmus Rasmussen
96 Age of Viking Conquest Sep 19, 2018 $4.99N/A (N/A)0 .. 20,000NAN%00:00 (00:00)Nemoïd AppsArgonauts Interactive
97 Age of History II Nov 21, 2018 $4.99N/A (N/A)500,000 .. 1,000,0009.09%01:02 (00:20)Łukasz JakowskiŁukasz Jakowski Games
98 Victory At Sea Pacific Sep 14, 2018 $39.99N/A (N/A)20,000 .. 50,000NAN%00:00 (00:00)Evil Twin ArtworksEvil Twin Artworks
99 Rocking Legend Aug 6, 2020 $24.99N/A (N/A)0 .. 20,000NAN%00:00 (00:00)Domuro SoftDomuro Soft
100 Combat Mission Shock Force 2 Aug 31, 2020 $59.99N/A (N/A)0 .. 20,0000%00:00 (00:00)BattlefrontSlitherine Ltd.
101 The Outcast Lovers Jul 31, 2020 FreeN/A (N/A)0 .. 20,000NAN%00:00 (00:00)Chard, de Fault, Richard CampbellFar Few Giants
102 Mr. Prepper: Prologue Aug 27, 2020 FreeN/A (N/A)200,000 .. 500,000NAN%00:00 (00:00)Rejected Games Sp. z o.o.PlayWay S.A.
103 Light Tracer 2 ~The Two Worlds~ Jul 30, 2020 $19.99N/A (N/A)0 .. 20,000NAN%00:00 (00:00)Void DimensionsChuyan Inc.
104 Yupitergrad Aug 27, 2020 $14.99N/A (N/A)0 .. 20,000NAN%00:00 (00:00)Gamedust Sp. z o.o.Gamedust Sp. z o.o.
105 Imperiums: Greek Wars Jul 30, 2020 $29.99N/A (N/A)50,000 .. 100,000NAN%00:00 (00:00)Kube GamesKube Games
106 Fuhrer in LA - Special Edition Aug 26, 2020 $1.99N/A (N/A)100,000 .. 200,000NAN%00:00 (00:00)Ankaar ProductionsAnkaar Productions
107 The Soldiers Factory Jul 27, 2020 $17.99N/A (N/A)0 .. 20,000NAN%00:00 (00:00)Bommi ProduktionBommi Produktion
108 Winds Rhapsody Aug 23, 2020 FreeN/A (N/A)50,000 .. 100,000NAN%00:00 (00:00)Ocean's DreamDegica
109 Argy Bargy Legends Jul 17, 2020 $7.99N/A (N/A)0 .. 20,000NAN%00:00 (00:00)Old Caledonia GamesOld Caledonia Games
110 Lost Jun 10, 2020 $10.99N/A (N/A)0 .. 20,000NAN%00:00 (00:00)玩多阵 Studio玩多阵 Studio
111 The Girl of Glass: A Summer Bird's Tale - The Journey Begins Sep 7, 2020 N/AN/A (N/A)0 .. 20,000NAN%00:00 (00:00)Markus with friendsEn Widunderlig Produktion
112 Zodiakalik Aug 19, 2020 $4.99N/A (N/A)0 .. 20,000NAN%00:00 (00:00)Diego Fernandes Malinowsky, Altanir Aparecida Fernandes MalinowskyDiego Fernandes Malinowsky
113 Making History: The First World War Sep 4, 2020 $19.99N/A (N/A)0 .. 20,000NAN%00:00 (00:00)Factus GamesFactus Games
114 Titan Attacks! Feb 3, 2012 $9.99N/A (N/A)0 .. 20,0000%00:00 (00:00)PuppygamesPuppygames
115 Intelligence Trader Aug 3, 2018 $9.99N/A (N/A)0 .. 20,000NAN%00:00 (00:00)DreambakersDreambakers
116 Panzer Hearts - War Visual Novel Apr 25, 2018 FreeN/A (N/A)0 .. 20,000NAN%00:00 (00:00)HELYEESHELYEES
117 End War RTS Jul 31, 2018 $5.59N/A (N/A)0 .. 20,000NAN%00:00 (00:00)AuroraAurora
118 Steampunk Tower 2 Apr 19, 2018 $3.59N/A (N/A)20,000 .. 50,000NAN%00:00 (00:00)DreamGateDreamGate
119 Aces of the Luftwaffe - Squadron Jul 24, 2018 $14.99N/A (N/A)0 .. 20,000NAN%00:00 (00:00)HandyGamesHandyGames
120 Long Gone Days Mar 28, 2018 $14.99N/A (N/A)0 .. 20,0000%00:00 (00:00)BURABURA
121 Because We're Here - Act I Jul 19, 2018 $5.99N/A (N/A)0 .. 20,000NAN%00:00 (00:00)Studio ElfriedeStudio Elfriede
122 Ostalgie: The Berlin Wall Mar 25, 2018 $5.99N/A (N/A)100,000 .. 200,0000%00:00 (00:00)KremlingamesKremlingames
123 Hue Defense Jul 6, 2018 $4.99N/A (N/A)0 .. 20,000NAN%00:00 (00:00)Brave Wolf StudioBrave Wolf Studio
124 Cruz Brothers Mar 19, 2018 $4.99N/A (N/A)0 .. 20,0000%00:00 (00:00)DCF StudiosDCF Studios
125 Shadow Council: The Puppeteers Jun 21, 2018 $14.99N/A (N/A)0 .. 20,000NAN%00:00 (00:00)Tap by TapTap by Tap
126 CONFLICT OF NATIONS: WORLD WAR 3 Mar 15, 2018 FreeN/A (N/A)200,000 .. 500,00016.67%00:42 (00:14)Dorado GamesDorado Games
127 Chronicles of Vinland May 23, 2018 $19.99N/A (N/A)0 .. 20,0000%00:00 (00:00)GamenesisGamenesis
128 Third Front: WWII May 11, 2018 $7.99N/A (N/A)20,000 .. 50,0000%00:00 (00:00)Hamsters GamingHamsters Gaming
129 Imperialism: Fate of India Aug 10, 2018 $14.99N/A (N/A)0 .. 20,000NAN%00:00 (00:00)GamenesisGamenesis
130 Making History: The Second World War Apr 27, 2018 $29.99N/A (N/A)20,000 .. 50,000NAN%00:00 (00:00)Factus GamesFactus Games
131 Tales Of Glory May 30, 2020 $29.99N/A (N/A)0 .. 20,0000%00:00 (00:00)BlackTale GamesBlackTale Games
132 Robo Terror Jul 4, 2020 $2.99N/A (N/A)0 .. 20,000NAN%00:00 (00:00)Alex Game Dev.Garage Games
133 Kairos'Light May 29, 2020 FreeN/A (N/A)0 .. 20,000NAN%00:00 (00:00)Manon Carrier, Jean-marc Vanbalberghe, Arnaud VanbalbergheAssoc. Let's Develop Change
134 Brain Sanguo Jun 30, 2020 $0.99N/A (N/A)0 .. 20,000NAN%00:00 (00:00)Brian Master (脑补大师)Brian Master (脑补大师)
135 风信楼 May 22, 2020 $11.99N/A (N/A)50,000 .. 100,0000%00:00 (00:00)Pingfang GamesPingfang Games
136 The Night Fisherman Jun 29, 2020 FreeN/A (N/A)100,000 .. 200,000NAN%00:00 (00:00)de Fault, Chard, Richard CampbellFar Few Giants
137 Strategic Mind: Blitzkrieg May 22, 2020 $39.99N/A (N/A)0 .. 20,000NAN%00:00 (00:00)Starni GamesStarni Games
138 Hard Driver 2 Jun 26, 2020 $1.99N/A (N/A)0 .. 20,000NAN%00:00 (00:00)Wertex Gamesgigantumgames
139 Section Six May 19, 2020 $3.99N/A (N/A)0 .. 20,000NAN%00:00 (00:00)Lepus GamesLepus Games
140 Relic Guardians: Complete Jun 22, 2020 $2.99N/A (N/A)20,000 .. 50,000NAN%00:00 (00:00)victor sette gamesvictor sette games
141 Boston AInamics May 18, 2020 $1.99N/A (N/A)0 .. 20,000NAN%00:00 (00:00)Boston AInamics hedeBoston AInamics hede
142 Secret Government Jun 22, 2020 $19.99N/A (N/A)0 .. 20,000NAN%00:00 (00:00)GameTrek1C Entertainment
143 BEAR, VODKA, FALL OF BERLIN! May 18, 2020 $1.19N/A (N/A)0 .. 20,000NAN%00:00 (00:00)Rabotiagi gamesRabotiagi games
144 1971 PROJECT HELIOS Jun 9, 2020 $24.99N/A (N/A)0 .. 20,000NAN%00:00 (00:00)Recotechnology S.L.Recotechnology S.L.
145 Commander '85 Prologue Jul 16, 2020 FreeN/A (N/A)0 .. 20,000NAN%00:00 (00:00)The MoonwallsUltimate Games S.A.
146 法洛伊幻境 Fareo Shadowlands Jun 3, 2020 $6.99N/A (N/A)0 .. 20,000NAN%00:00 (00:00)EmpromGameAplusGames
147 Tyrannis Jul 8, 2020 $9.99N/A (N/A)0 .. 20,000NAN%00:00 (00:00)cGh ONEcGh ONE
148 Zombies In The Dark Jan 7, 2019 $0.99N/A (N/A)0 .. 20,000NAN%00:00 (00:00)SYNERGYSYNERGY
149 Battle Command Jun 1, 1990 $4.99N/A (N/A)0 .. 20,000NAN%00:00 (00:00)Ocean SoftwarePixel Games UK
150 AXYOS: Battlecards Apr 22, 2019 $4.99N/A (N/A)0 .. 20,000NAN%00:00 (00:00)Axyos GamesAxyos Games
151 Critters for Sale: SNAKE Jan 8, 2021 FreeN/A (N/A)0 .. 20,000NAN%00:00 (00:00)SonosheeSonoshee
152 Corrupt The Priest Dec 14, 2018 $3.99N/A (N/A)0 .. 20,000NAN%00:00 (00:00)Tap by TapTap by Tap
153 Cannibal Coast Jan 19, 2021 $1.99N/A (N/A)0 .. 20,000NAN%00:00 (00:00)Wholetone GamesWholetone Games
154 Ymir Mar 16, 2019 $34.99N/A (N/A)20,000 .. 50,0000%00:00 (00:00)Thibaud MichaudThibaud Michaud
155 Subterene Nov 22, 2020 $0.99N/A (N/A)0 .. 20,000NAN%00:00 (00:00)PossmonautTrashtronaut
156 Evil Bank Manager Dec 8, 2018 $11.99N/A (N/A)50,000 .. 100,0000%00:00 (00:00)Hamsters GamingHamsters Gaming
157 IDIOT Jan 18, 2021 $4.99N/A (N/A)0 .. 20,000NAN%00:00 (00:00)Andreev Worlds, Alexander ManaenkovAndreev Worlds
158 列传:革新战争 Jan 7, 2021 $16.99N/A (N/A)0 .. 20,000NAN%00:00 (00:00)Ash Game StudioAsh Game Studio
159 Diving Disorder-下潜症 Jan 15, 2021 $2.99N/A (N/A)0 .. 20,000NAN%00:00 (00:00)Lingtan StudioLingtan Studio
160 Lyratha: Labyrinth - Survival - Escape Mar 11, 2019 $6.99N/A (N/A)20,000 .. 50,000NAN%00:00 (00:00)Lord ImperioLord Imperio
161 I'a I'a Cofflhu Fhtagnyaa Jan 4, 2021 $4.99N/A (N/A)20,000 .. 50,000NAN%00:00 (00:00)lamb of gamelamb of game
162 Cheeky Beetle And The Unlikely Heroes May 22, 2019 $2.99N/A (N/A)100,000 .. 200,000NAN%00:00 (00:00)Rocksoft LtdRocksoft Ltd
163 Amazing Pyramids: Rebirth Jan 14, 2021 $6.99N/A (N/A)0 .. 20,000NAN%00:00 (00:00)Oleg SeredaOleg Sereda
164 7th Sector Mar 5, 2019 $12.99N/A (N/A)0 .. 20,0000%00:00 (00:00)Носков СергейНосков Сергей
165 Soulestination Jan 5, 2021 $2.99N/A (N/A)20,000 .. 50,000NAN%00:00 (00:00)ZaxiquejZaxiquej
166 Fade Out May 21, 2019 $7.99N/A (N/A)20,000 .. 50,000NAN%00:00 (00:00)PlaySysPlaySys
167 Arm of Revenge Re-Edition Jan 13, 2021 $4.99N/A (N/A)0 .. 20,000NAN%00:00 (00:00)MagicWingMagicWing
168 Blood Bond - Into the Shroud Feb 27, 2019 $24.99N/A (N/A)0 .. 20,000NAN%00:00 (00:00)W.R.K.S GamesW.R.K.S Games
169 Heart World Dec 24, 2020 $0.99N/A (N/A)20,000 .. 50,000NAN%00:00 (00:00)凌望游戏工作室凌望游戏工作室, 花蕊游戏工作室
170 Citizen of Rome - Dynasty Ascendant Jan 1, 2019 $6.99N/A (N/A)200,000 .. 500,000NAN%00:00 (00:00)Citizen of Rome - Dynasty Ascendant, Sathvik Software SolutionsCitizen of Rome - Dynasty Ascendant, Sathvik Software Solutions
171 Cloud Climber Jan 14, 2021 FreeN/A (N/A)50,000 .. 100,000NAN%00:00 (00:00)Two Star GamesTwo Star Games
172 Rogue Reaper Feb 1, 2019 FreeN/A (N/A)50,000 .. 100,000NAN%00:00 (00:00)Fireroot StudiosFireroot Studios
173 Quarantine: Global Pandemic Jan 13, 2021 $3.99N/A (N/A)20,000 .. 50,000NAN%00:00 (00:00)Buck StudiosBuck Studios
174 World War Zero Oct 25, 2002 $4.99N/A (N/A)0 .. 20,000NAN%00:00 (00:00)RebellionRebellion
175 Precipice May 1, 2019 $7.99N/A (N/A)0 .. 20,0000%00:00 (00:00)LRDGames, Inc.LRDGames, Inc.
176 All is Fair in Dust and Air Jan 12, 2021 $9.99N/A (N/A)0 .. 20,000NAN%00:00 (00:00)Broken Hammer Games, LLCBroken Hammer Games, LLC
177 Anti Zombie AI - Tower Defense (Azai - TD) Aug 4, 2017 $1.99N/A (N/A)0 .. 20,000NAN%00:00 (00:00)PodShoh StudioPodShoh Studio
178 ❂ Heroes of Hexaluga ❂ Nov 20, 2017 $9.99N/A (N/A)20,000 .. 50,000NAN%00:00 (00:00)Hexaluga hedeHexaluga hede
179 Supreme Ruler The Great War Aug 1, 2017 $5.99N/A (N/A)0 .. 20,0000%00:00 (00:00)BattleGoat StudiosBattleGoat Studios
180 Project First Contact Jul 26, 2017 $0.5N/A (N/A)0 .. 20,0000%00:00 (00:00)Cristian Manolachi, Atomic FabrikCristian Manolachi, Atomic Fabrik
181 Boom Island Oct 16, 2017 $0.99N/A (N/A)0 .. 20,0000%00:00 (00:00)Caden Goodwincsgood
182 Tragedy of Prince Rupert Jul 26, 2017 $3.99N/A (N/A)0 .. 20,0000%00:00 (00:00)SpytihněvSpytihněv
183 Arms Race - TCWE Oct 5, 2017 $14.99N/A (N/A)0 .. 20,0000%00:00 (00:00)Alina DigitalAlina Digital
184 Blind Men Jul 25, 2017 $3.99N/A (N/A)0 .. 20,000NAN%00:00 (00:00)Man-Eater GamesMan-Eater Games
185 Tell a Demon Jul 21, 2017 $12.99N/A (N/A)0 .. 20,000NAN%00:00 (00:00)Sun Labyrinth LLCSun Labyrinth LLC
186 King Of Mazes Mar 15, 2018 $1.99N/A (N/A)0 .. 20,000NAN%00:00 (00:00)King Key GamesKing Key Games
187 Darkarta: A Broken Heart's Quest Standard Edition Aug 28, 2017 $5.99N/A (N/A)0 .. 20,0000%00:00 (00:00)Tuttifrutti InteractiveTuttifrutti Interactive
188 a Museum of Dubious Splendors Mar 6, 2018 FreeN/A (N/A)20,000 .. 50,0000%00:00 (00:00)Studio OleomingusThe Irregular Corporation
189 Strategy & Tactics: Dark Ages Aug 4, 2017 $14.99N/A (N/A)20,000 .. 50,0000%00:00 (00:00)HeroLabsHeroLabs
190 Strategic Mind: The Pacific Oct 25, 2019 $29.99N/A (N/A)50,000 .. 100,000NAN%00:00 (00:00)Starni GamesStarni Games
191 Pendula Swing - The Complete Journey Mar 8, 2020 $16.99N/A (N/A)0 .. 20,000NAN%00:00 (00:00)Valiant Game Studio ABValiant Game Studio AB
192 Not For Broadcast Jan 30, 2020 $19.99N/A (N/A)200,000 .. 500,0000%00:00 (00:00)NotGamestinyBuild
193 BDSM: Big Drunk Satanic Massacre Oct 10, 2019 $4.59N/A (N/A)20,000 .. 50,0000%00:00 (00:00)Big Way GamesBig Way Games
194 Gizmos: Steampunk Nonograms Jan 17, 2020 $4.99N/A (N/A)0 .. 20,000NAN%00:00 (00:00)Oleg SeredaOleg Sereda
195 Taste of Power Oct 10, 2019 $14.99N/A (N/A)0 .. 20,000NAN%00:00 (00:00)OneOcean LLCOneOcean LLC
196 Singularity: Tactics Arena Dec 17, 2019 $9.99N/A (N/A)0 .. 20,000NAN%00:00 (00:00)A Memory of Eternity LLCA Memory of Eternity LLC
197 HEIST Sep 27, 2019 $18.99N/A (N/A)0 .. 20,000NAN%00:00 (00:00)Atomizer GamesAtomizer Games
198 Aurora - Hidden Colors Dec 13, 2019 $3.99N/A (N/A)0 .. 20,000NAN%00:00 (00:00)Aurora - Mídia & GamesAurora - Mídia & Games
199 I Love You, Colonel Sanders! A Finger Lickin’ Good Dating Simulator Sep 24, 2019 FreeN/A (N/A)200,000 .. 500,000NAN%00:00 (00:00)PsyopKFC
200 In the beginning Sep 7, 2019 $9.99N/A (N/A)0 .. 20,000NAN%00:00 (00:00)Solare GamesSolare Games
201 Ritual: Crown of Horns Nov 7, 2019 $19.99N/A (N/A)0 .. 20,000NAN%00:00 (00:00)Draw DistanceFeardemic
202 Heroes Of Maidan 3: Crimean Battle Apr 22, 2020 $0.5N/A (N/A)0 .. 20,000NAN%00:00 (00:00)LuftWaffelLuftWaffel
203 BEARS, VODKA, BALALAIKA! Nov 6, 2019 $1.99N/A (N/A)20,000 .. 50,0000%00:00 (00:00)Rabotiagi gamesRabotiagi games
204 Caffeine: Victoria's Legacy Mar 20, 2020 $17.99N/A (N/A)0 .. 20,000NAN%00:00 (00:00)Kikai DigitalKikai Digital
205 Carperation Dec 21, 2020 $24.99N/A (N/A)0 .. 20,000NAN%00:00 (00:00)VastudioVastudio
206 Stupid Stories Dec 3, 2020 $4.99N/A (N/A)0 .. 20,000NAN%00:00 (00:00)MoMo
207 Ring of Fire: Prologue Dec 15, 2020 FreeN/A (N/A)50,000 .. 100,000NAN%00:00 (00:00)de Fault, ChardFar Few Giants
208 I Am Your President: Prologue Dec 2, 2020 FreeN/A (N/A)0 .. 20,000NAN%00:00 (00:00)President StudioPlayWay S.A.
209 Gizmos: Spirit Of The Christmas Dec 15, 2020 $4.99N/A (N/A)0 .. 20,000NAN%00:00 (00:00)Oleg SeredaOleg Sereda
210 Field Hospital: Dr. Taylor's Story Nov 27, 2020 $5.94N/A (N/A)0 .. 20,000NAN%00:00 (00:00)Gard InteractiveGard Interactive
211 九个世界(Nine worlds) Dec 14, 2020 $17.99N/A (N/A)0 .. 20,000NAN%00:00 (00:00)
212 Dawn of the Mexica Nov 26, 2020 $11.99N/A (N/A)20,000 .. 50,000NAN%00:00 (00:00)Pablo BarrónPablo Barrón
213 Adventures of Megara: Antigone and the Living Toys Dec 10, 2020 $11.99N/A (N/A)0 .. 20,000NAN%00:00 (00:00)GameOn ProductionJetdogs Studios
214 Pleiades - A Subversion Saga Game Nov 22, 2020 $7.99N/A (N/A)20,000 .. 50,000NAN%00:00 (00:00)Joshua Linscott, 1122 IndustriesJoshua Linscott, 1122 Industries
215 Deceased Dec 9, 2020 $5.99N/A (N/A)20,000 .. 50,000NAN%00:00 (00:00)BT StudiosBT Studios
216 ~Be a maid in the Demon World~ The Secret Café of the Demon Angel Hero. Nov 21, 2020 $18.99N/A (N/A)0 .. 20,000NAN%00:00 (00:00)Kokutou UmeboshiKokutou Umeboshi
217 Game Localization Dec 7, 2020 $1.99N/A (N/A)0 .. 20,000NAN%00:00 (00:00)Game LocalizationGame Localization
218 Phoenix Squadron: Northern Star Dec 23, 2020 FreeN/A (N/A)0 .. 20,000NAN%00:00 (00:00)Starcrater21Starcrater21
219 Amborettio Dec 21, 2020 $4.99N/A (N/A)50,000 .. 100,000NAN%00:00 (00:00)WanechWanech
220 Aefen Fall Dec 4, 2020 $6.99N/A (N/A)0 .. 20,000NAN%00:00 (00:00)Studio 9.7Studio 9.7
221 Crisis in the Kremlin Mar 20, 2017 $4.99N/A (N/A)200,000 .. 500,0000%00:00 (00:00)KremlingamesKremlingames
222 The Cold War Era Sep 9, 2016 $4.99N/A (N/A)0 .. 20,0000%00:00 (00:00)Alina DigitalAlina Digital
223 Darkarta: A Broken Heart's Quest Collector's Edition Mar 8, 2017 $9.99N/A (N/A)50,000 .. 100,0000%00:00 (00:00)Tuttifrutti InteractiveTuttifrutti Interactive
224 Ultimate Arena Aug 22, 2016 $4.99N/A (N/A)100,000 .. 200,0000%00:00 (00:00)TriverskeTriverske
225 Steam Squad Jul 28, 2016 $17.99N/A (N/A)20,000 .. 50,000NAN%00:00 (00:00)Bretwalda GamesBretwalda Games
226 Greenwood the Last Ritual Jan 19, 2017 $2.99N/A (N/A)100,000 .. 200,0000%00:00 (00:00)AO2GameAO2Game
227 Disgraced Jun 20, 2016 $8.99N/A (N/A)0 .. 20,0000%00:00 (00:00)Corrosive Studios LLCCorrosive Studios LLC
228 FreeHolder Jul 5, 2016 $9.99N/A (N/A)0 .. 20,000NAN%00:00 (00:00)RogueWareRogueWare
229 Lost in Secular Love Oct 28, 2016 $9.99N/A (N/A)20,000 .. 50,000NAN%00:00 (00:00)YETU GAMEYETU GAME
230 The Temporal Invasion Jul 4, 2016 $6.99N/A (N/A)50,000 .. 100,0000%00:00 (00:00)Hybriona LabsHybriona Labs
231 IKEA VR Pancake Kitchen May 30, 2017 FreeN/A (N/A)100,000 .. 200,0000%00:00 (00:00)IKEA Communications ABIKEA Communications AB
232 BioShock 2 Remastered Sep 15, 2016 $19.99N/A (N/A)500,000 .. 1,000,0000.91%01:06 (00:43)2K Marin, 2K China, Digital Extremes, 2K Australia, Blind Squirrel, Feral Interactive (Mac)2K, Feral Interactive (Mac)
233 Interkosmos Apr 25, 2017 $4.99N/A (N/A)50,000 .. 100,0000%00:00 (00:00)Ovid WorksOvid Works
234 PRINCIPIA: Master of Science Sep 9, 2016 $9.99N/A (N/A)0 .. 20,000NAN%00:00 (00:00)tomeappPLAYISM
235 macdows 95 Sep 5, 2019 $4.99N/A (N/A)0 .. 20,0000%00:00 (00:00)Yunus AyyildizYunus Ayyildiz
236 KILL la KILL -IF Jul 25, 2019 $19.99N/A (N/A)20,000 .. 50,0000%00:00 (00:00)Arc System Works, APLUS Co., Ltd.Arc System Works
237 Overpass Aug 15, 2019 $14.99N/A (N/A)0 .. 20,000NAN%00:00 (00:00)Studio BeanStudio Bean
238 Telefrag VR Jul 19, 2019 $19.99N/A (N/A)0 .. 20,000NAN%00:00 (00:00)Anshar StudiosAnshar Studios
239 TUTUTUTU - Tea party Aug 14, 2019 $15.99N/A (N/A)0 .. 20,000NAN%00:00 (00:00)Marginal actMarginal act
240 局外人 L'Etranger Jul 17, 2019 FreeN/A (N/A)20,000 .. 50,000NAN%00:00 (00:00)Class-2Class-2
241 Saboteur II: Avenging Angel Aug 2, 2019 $7.99N/A (N/A)0 .. 20,000NAN%00:00 (00:00)SimFabric, Clive TownsendSimFabric
242 Supremacy 1914: World War 1 Jul 16, 2019 FreeN/A (N/A)100,000 .. 200,000NAN%00:00 (00:00)Bytro Labs GmbHBytro Labs GmbH
243 Master Of Secrets: Dark Europe Jun 25, 2019 $3.99N/A (N/A)0 .. 20,000NAN%00:00 (00:00)Tap by TapTap by Tap
244 Bloody Chronicles - New Cycle of Death Visual Novel Aug 1, 2019 $24.99N/A (N/A)0 .. 20,0000%00:00 (00:00)Igrasil Development TeamIgrasil Studio
245 时之扉 Jun 11, 2019 FreeN/A (N/A)20,000 .. 50,000NAN%00:00 (00:00)JT Interactive EntertainmentJT Interactive Entertainment
246 Rick Rack Aug 1, 2019 $8.99N/A (N/A)0 .. 20,000NAN%00:00 (00:00)VishwaKarmaStudios4t2 games
247 Last Day of Rome Sep 6, 2019 $11.99N/A (N/A)0 .. 20,000NAN%00:00 (00:00)HamstersHamsters
248 Fit For a King Sep 5, 2019 $9.99N/A (N/A)0 .. 20,000NAN%00:00 (00:00)Brent Ellison, Tanya X. ShortKitfox Games
249 Möbius Front '83 Nov 5, 2020 $19.99N/A (N/A)20,000 .. 50,000NAN%00:00 (00:00)ZachtronicsZachtronics
250 Seditionis: Tower Defense Nov 18, 2020 FreeN/A (N/A)50,000 .. 100,000NAN%00:00 (00:00)Dragonflare StudiosDragonflare Studios
251 The Emperor's Own: Alpha Teaser Nov 4, 2020 FreeN/A (N/A)20,000 .. 50,000NAN%00:00 (00:00)Volga StudiosVolga Studios
252 Silicon Valley Investor Nov 18, 2020 $2.99N/A (N/A)0 .. 20,000NAN%00:00 (00:00)Revolver NineRevolver Nine
253 Hassle 1977 Nov 3, 2020 $12.99N/A (N/A)0 .. 20,000NAN%00:00 (00:00)Limkernel Gamedev GangLimkernel Gamedev Gang
254 Junk on Wheels Nov 1, 2020 $9.99N/A (N/A)0 .. 20,000NAN%00:00 (00:00)Infravision Inc.Infravision Inc.
255 Strategic Mind: Spectre of Communism Nov 13, 2020 $29.99N/A (N/A)0 .. 20,000NAN%00:00 (00:00)Starni GamesStarni Games
256 Dreadful Shadows Oct 31, 2020 $19.99N/A (N/A)0 .. 20,000NAN%00:00 (00:00)Brainroot StudioBrainRoot Studio
257 No Place for the Dissident Nov 12, 2020 $19.99N/A (N/A)0 .. 20,000NAN%00:00 (00:00)David M.David M.
258 Mortal Decay Oct 28, 2020 $2.99N/A (N/A)0 .. 20,000NAN%00:00 (00:00)Roger KafferRoger Kaffer
259 Observer: System Redux Nov 10, 2020 $29.99N/A (N/A)100,000 .. 200,0000%00:00 (00:00)Bloober Team, Anshar StudiosBloober Team SA
260 Gizmos: Spooky Adventures Oct 26, 2020 $4.99N/A (N/A)0 .. 20,000NAN%00:00 (00:00)Oleg SeredaOleg Sereda
261 Good puzzle: Castles Nov 9, 2020 $0.49N/A (N/A)0 .. 20,000NAN%00:00 (00:00)Laush Dmitriy SergeevichLaush Studio
262 The Cherry Orchard Nov 20, 2020 $6.99N/A (N/A)0 .. 20,000NAN%00:00 (00:00)Team DogpitTeam Dogpit
263 Ricky did nothing wrong Nov 19, 2020 FreeN/A (N/A)100,000 .. 200,000NAN%00:00 (00:00)Alexander Cirac AntioAlexander Cirac Antio
264 Hegemony III: Clash of the Ancients Aug 25, 2015 $29.99N/A (N/A)20,000 .. 50,000NAN%00:00 (00:00)Longbow GamesLongbow Games
265 Pharaonic Apr 28, 2016 $14.99N/A (N/A)50,000 .. 100,0000%00:00 (00:00)Milkstone StudiosMilkstone Studios
266 I Shall Remain Aug 24, 2015 $9.99N/A (N/A)20,000 .. 50,000NAN%00:00 (00:00)Scorpius GamesScorpius Games
267 Strategy & Tactics: Wargame Collection Apr 22, 2016 $9.99N/A (N/A)50,000 .. 100,0000%00:00 (00:00)HeroLabsHeroLabs
268 Dark Storm: VR Missions Aug 19, 2015 N/AN/A (N/A)0 .. 20,0000%00:00 (00:00)Fenrir StudiosFenrir Studios
269 Colonial Conquest Jul 28, 2015 $9.99N/A (N/A)0 .. 20,0000%00:00 (00:00)Argonauts Interactive, Collectif NemoïdPlug In Digital, Argonauts Interactive
270 Karaski: What Goes Up... Mar 2, 2016 $11.99N/A (N/A)100,000 .. 200,000NAN%00:00 (00:00)Unbound CreationsUnbound Creations
271 Deadlands Noir - That Old Time Religion Jul 3, 2015 $1.99N/A (N/A)0 .. 20,000NAN%00:00 (00:00)SmiteWorks USA, LLCSmiteWorks USA, LLC
272 Age of Gladiators Feb 25, 2016 $9.99N/A (N/A)0 .. 20,0000%00:00 (00:00)Creative Storm EntertainmentCreative Storm Entertainment
273 War of the Human Tanks - Limited Operations Jun 13, 2016 $9.99N/A (N/A)20,000 .. 50,000NAN%00:00 (00:00)Yakiniku BanzaiFruitbat Factory
274 Turnover Dec 15, 2015 $2.99N/A (N/A)0 .. 20,0000%00:00 (00:00)Long Division LLCLong Division LLC
275 Dino Eggs: Rebirth Jun 8, 2016 $9.99N/A (N/A)0 .. 20,000NAN%00:00 (00:00)David H Schroeder, Eric FerrotDavid H Schroeder
Overview

alternate history

Games with this tag: 275
Average userscore: N/A%
Average metascore: 74.37%
Average playtime: 04:06
Total copies owned: 50,567,000
Average price: $12.89
Help

Owners: Estimated number of people owning this game. The number might be way too small for new releases and sometimes way too big for games that had free weekend event recently. Read more on About page.

Playtime: Average hours played in total per person that have actually launched this game since March 2009. This time is calculated for the whole lifetime, not for the particular year.

Average score: Average users and metacritic score for all games with this score assigned.

Average playtime: Average lifetime playtime for all games where this data is available.

Games in this genre: Self-explaining - number of games with this tag. Only inculdes games with sales data available.

Total copies owned: Refers to total copies of games with this tag acquired by users for the lifetime. Includes copies sold, downloaded for free and given out.

This number might be too small for recently released games or too big for games that had a free weekend in the last couple of months.

Graphs

Login required.

Please register or log in to see this information.

Login required.

Please register or log in to see this information.